User: anonymous   Login
Location: Newark
(49.5647°N, 8.2922°E)
Time: 15:57:57
(UTC+00:00)
Language:

S-56A Canister/Altair - Orbit

View from above orbital plane
View from above orbital plane
View from above satellite
View from above satellite

Ground track
Ground track

The orbit data is extracted from the following two-line orbital elements,

1    82U 61004B   20049.71740019 -.00000014 +00000-0 +13482-4 0  9993
2    82 038.8610 281.7356 1174654 225.7343 124.0897 12.26060693793111
Epoch (UTC): 18 February 2020 17:13:03
Eccentricity: 0.1174654
inclination: 38.8610°
perigee height: 633 km
apogee height: 2499 km
right ascension of ascending node: 281.7356°
argument of perigee: 225.7343°
revolutions per day: 12.26060693
mean anomaly at epoch: 124.0897°
orbit number at epoch: 79311

The dashed part of the orbit path shows where the satellite is in the earth's shadow,  

DLR